GW0692 Weather Reports


Display with metric or nautical units.
time (UTC)temp
F
wind
direction
speed
MPH
gust
MPH
rain 1hr
in
rain 24hr
in
rain mn
in
humidity
%
barometer
mb
20260503231650 65 251 5.0 9.0 0.00 0.00 0.00 26 1018.2
20260503231145 64 240 9.0 12.0 0.00 0.00 0.00 26 1018.3
20260503230642 63 283 3.0 3.0 0.00 0.00 0.00 28 1018.3
20260503230139 64 294 9.0 12.0 0.00 0.00 0.00 27 1018.5
20260503225637 63 263 14.0 19.0 0.00 0.00 0.00 27 1018.7
20260503225136 63 214 9.0 14.0 0.00 0.00 0.00 27 1018.5
20260503224634 64 285 6.0 7.0 0.00 0.00 0.00 26 1018.4
20260503224132 63 287 11.0 17.0 0.00 0.00 0.00 27 1018.5
20260503223630 63 269 7.0 9.0 0.00 0.00 0.00 27 1018.7
20260503223125 64 267 10.0 10.0 0.00 0.00 0.00 26 1018.7
20260503222623 64 337 5.0 7.0 0.00 0.00 0.00 26 1018.9
20260503222121 64 232 9.0 10.0 0.00 0.00 0.00 26 1018.9
20260503221619 64 334 9.0 12.0 0.00 0.00 0.00 25 1018.7
20260503221116 63 266 8.0 12.0 0.00 0.00 0.00 26 1018.9
20260503220613 63 241 7.0 10.0 0.00 0.00 0.00 25 1018.9
20260503220109 64 234 13.0 19.0 0.00 0.00 0.00 25 1018.8
20260503215606 63 238 7.0 10.0 0.00 0.00 0.00 26 1018.9
20260503215103 64 274 7.0 9.0 0.00 0.00 0.00 25 1018.9
20260503214602 63 300 11.0 15.0 0.00 0.00 0.00 25 1019.4
20260503214057 63 281 7.0 9.0 0.00 0.00 0.00 23 1019.2
20260503213556 64 236 9.0 10.0 0.00 0.00 0.00 23 1019.3
20260503213052 62 247 3.0 3.0 0.00 0.00 0.00 26 1019.5
20260503212550 64 243 9.0 10.0 0.00 0.00 0.00 25 1019.5
20260503212047 64 221 7.0 9.0 0.00 0.00 0.00 28 1019.4
20260503211544 64 259 6.0 7.0 0.00 0.00 0.00 26 1019.7
20260503211039 62 254 6.0 9.0 0.00 0.00 0.00 27 1019.9
20260503210537 62 233 9.0 14.0 0.00 0.00 0.00 30 1019.9
20260503210032 63 315 9.0 15.0 0.00 0.00 0.00 30 1019.9
20260503205529 63 294 5.0 5.0 0.00 0.00 0.00 28 1020.0
20260503205026 62 257 11.0 12.0 0.00 0.00 0.00 30 1020.2
20260503204523 61 233 15.0 15.0 0.00 0.00 0.00 33 1020.5
20260503204020 61 266 4.0 7.0 0.00 0.00 0.00 31 1020.5
20260503203517 61 200 9.0 12.0 0.00 0.00 0.00 31 1020.5
20260503203014 61 225 3.0 3.0 0.00 0.00 0.00 33 1020.8
20260503202512 61 230 7.0 9.0 0.00 0.00 0.00 33 1020.7
20260503202010 60 261 7.0 9.0 0.00 0.00 0.00 32 1020.8
20260503201508 61 286 5.0 7.0 0.00 0.00 0.00 32 1020.9
20260503201004 61 257 3.0 3.0 0.00 0.00 0.00 35 1021.2
20260503200501 61 276 5.0 7.0 0.00 0.00 0.00 36 1021.0
20260503195957 59 253 5.0 5.0 0.00 0.00 0.00 34 1021.3
20260503195455 62 296 9.0 14.0 0.00 0.00 0.00 30 1021.3
20260503194951 60 246 5.0 7.0 0.00 0.00 0.00 36 1021.4
20260503194449 60 267 7.0 9.0 0.00 0.00 0.00 36 1021.7
20260503193943 57 249 7.0 12.0 0.00 0.00 0.00 41 1021.5
20260503193439 59 247 5.0 7.0 0.00 0.00 0.00 42 1021.7
20260503192935 59 277 6.0 9.0 0.00 0.00 0.00 40 1021.8
20260503192432 57 275 4.0 5.0 0.00 0.00 0.00 41 1021.5
20260503191927 57 289 11.0 12.0 0.00 0.00 0.00 42 1021.5
20260503191425 57 292 8.0 10.0 0.00 0.00 0.00 41 1021.7
20260503190921 58 288 6.0 9.0 0.00 0.00 0.00 43 1021.8
20260503190419 58 241 7.0 9.0 0.00 0.00 0.00 41 1021.9
20260503185915 57 242 6.0 9.0 0.00 0.00 0.00 44 1022.2
20260503185412 57 209 9.0 12.0 0.00 0.00 0.00 43 1022.2
20260503184911 58 253 7.0 10.0 0.00 0.00 0.00 42 1022.2
20260503184408 59 294 7.0 9.0 0.00 0.00 0.00 42 1022.0
20260503183904 58 227 5.0 9.0 0.00 0.00 0.00 43 1022.3
20260503183401 58 290 5.0 5.0 0.00 0.00 0.00 43 1022.4
20260503182858 57 308 7.0 7.0 0.00 0.00 0.00 45 1022.5
20260503182357 57 298 8.0 12.0 0.00 0.00 0.00 44 1022.8
20260503181854 57 267 5.0 7.0 0.00 0.00 0.00 44 1022.9
20260503181351 57 232 3.0 5.0 0.00 0.00 0.00 43 1023.0
20260503180847 56 264 6.0 7.0 0.00 0.00 0.00 45 1022.9
20260503180345 57 267 3.0 5.0 0.00 0.00 0.00 45 1023.0
20260503175841 57 242 9.0 15.0 0.00 0.00 0.00 44 1023.0
20260503175339 57 253 6.0 9.0 0.00 0.00 0.00 44 1023.0
20260503174835 57 232 10.0 14.0 0.00 0.00 0.00 42 1022.9
20260503174333 58 270 6.0 9.0 0.00 0.00 0.00 45 1023.3
20260503173828 58 303 6.0 9.0 0.00 0.00 0.00 45 1023.0
20260503173325 58 267 4.0 5.0 0.00 0.00 0.00 44 1023.0
20260503172822 58 299 6.0 7.0 0.00 0.00 0.00 43 1023.3
20260503172320 58 226 7.0 10.0 0.00 0.00 0.00 43 1023.2
20260503171815 57 244 11.0 14.0 0.00 0.00 0.00 44 1023.0
20260503171312 57 241 7.0 10.0 0.00 0.00 0.00 43 1023.5
20260503170809 57 248 4.0 5.0 0.00 0.00 0.00 44 1023.5
20260503170306 57 250 9.0 10.0 0.00 0.00 0.00 44 1023.8
20260503150658 53 245 0.0 0.0 0.00 0.00 0.00 54 1023.6
20260503150154 53 294 2.0 3.0 0.00 0.00 0.00 52 1023.8
20260503140119 50 274 2.0 2.0 0.00 0.00 0.00 66 1023.4
20260503131048 45 260 3.0 3.0 0.00 0.00 0.00 73 1023.0
20260503130545 45 262 2.0 3.0 0.00 0.00 0.00 75 1023.0
20260503110436 41 244 5.0 5.0 0.00 0.00 0.00 81 1023.3
20260503090327 41 266 2.0 3.0 0.00 0.00 0.00 77 1023.9
20260503081254 42 271 5.0 7.0 0.00 0.00 0.00 74 1024.0
20260503080750 43 277 7.0 9.0 0.00 0.00 0.00 73 1023.9
20260503080248 43 239 5.0 9.0 0.00 0.00 0.00 73 1024.3
20260503072724 42 265 5.0 9.0 0.00 0.00 0.00 74 1024.3
20260503072221 42 244 5.0 5.0 0.00 0.00 0.00 74 1024.4
20260503071717 42 249 4.0 5.0 0.00 0.00 0.00 73 1024.4
20260503071215 42 279 5.0 7.0 0.00 0.00 0.00 73 1024.5
20260503070711 42 268 5.0 7.0 0.00 0.00 0.00 73 1024.8
20260503070209 42 267 5.0 7.0 0.00 0.00 0.00 73 1024.5
20260503060133 44 229 6.0 7.0 0.00 0.00 0.00 68 1024.3
20260503055125 44 238 5.0 5.0 0.00 0.00 0.00 68 1024.4
20260503054621 44 286 5.0 7.0 0.00 0.00 0.00 68 1024.3
20260503054118 44 289 7.0 9.0 0.00 0.00 0.00 68 1024.1
20260503053616 44 256 5.0 5.0 0.00 0.00 0.00 67 1024.5
20260503053114 44 263 8.0 10.0 0.00 0.00 0.00 68 1024.3
20260503052610 44 260 6.0 7.0 0.00 0.00 0.00 68 1024.3
20260503052107 44 237 4.0 5.0 0.00 0.00 0.00 68 1024.1
20260503051602 44 249 8.0 10.0 0.00 0.00 0.00 68 1024.0
20260503051100 44 264 5.0 5.0 0.00 0.00 0.00 69 1024.3
20260503050555 44 289 8.0 10.0 0.00 0.00 0.00 69 1024.1
20260503050053 44 263 3.0 3.0 0.00 0.00 0.00 71 1024.4
20260503045550 44 228 5.0 7.0 0.00 0.00 0.00 71 1024.1
20260503045047 43 256 3.0 5.0 0.00 0.00 0.00 72 1024.4
20260503044544 43 255 3.0 3.0 0.00 0.00 0.00 73 1024.4
20260503044042 43 261 5.0 5.0 0.00 0.00 0.00 73 1024.3
20260503043538 44 251 5.0 5.0 0.00 0.00 0.00 72 1024.3
20260503043034 43 247 3.0 3.0 0.00 0.00 0.00 72 1024.3
20260503042531 43 251 5.0 5.0 0.00 0.00 0.00 72 1024.0
20260503042027 44 260 3.0 3.0 0.00 0.00 0.00 71 1023.9
20260503041524 44 265 4.0 5.0 0.00 0.00 0.00 70 1024.1
20260503041022 44 282 4.0 5.0 0.00 0.00 0.00 69 1024.1
20260503040520 45 275 3.0 3.0 0.00 0.00 0.00 67 1023.9
20260503040017 46 246 4.0 5.0 0.00 0.00 0.00 67 1023.9
20260503035513 45 271 9.0 12.0 0.00 0.00 0.00 66 1024.0
20260503035011 45 263 3.0 3.0 0.00 0.00 0.00 65 1024.1
20260503034508 46 271 5.0 5.0 0.00 0.00 0.00 64 1024.0
20260503034005 47 258 5.0 7.0 0.00 0.00 0.00 63 1023.8
20260503033502 47 252 6.0 7.0 0.00 0.00 0.00 62 1023.9
20260503033000 46 252 6.0 7.0 0.00 0.00 0.00 62 1023.6
20260503032458 46 248 6.0 7.0 0.00 0.00 0.00 61 1023.6
20260503031956 46 273 5.0 5.0 0.00 0.00 0.00 61 1023.8
20260503031454 46 230 4.0 5.0 0.00 0.00 0.00 60 1023.8
20260503030950 47 244 6.0 7.0 0.00 0.00 0.00 59 1023.4
20260503030446 47 263 7.0 7.0 0.00 0.00 0.00 59 1023.3
20260503025943 47 242 4.0 5.0 0.00 0.00 0.00 58 1023.5
20260503025440 48 259 6.0 7.0 0.00 0.00 0.00 57 1023.4
20260503024938 48 255 2.0 3.0 0.00 0.00 0.00 57 1023.3
20260503024434 48 251 4.0 5.0 0.00 0.00 0.00 57 1023.5
20260503023931 48 260 4.0 5.0 0.00 0.00 0.00 56 1023.4
20260503023428 48 245 3.0 3.0 0.00 0.00 0.00 55 1023.2
20260503022925 48 238 2.0 3.0 0.00 0.00 0.00 54 1023.2
20260503022420 48 250 3.0 5.0 0.00 0.00 0.00 54 1023.0
20260503021916 49 251 3.0 3.0 0.00 0.00 0.00 53 1022.7
20260503021412 49 250 3.0 3.0 0.00 0.00 0.00 52 1023.2
20260503020910 49 223 4.0 5.0 0.00 0.00 0.00 52 1022.9
20260503020408 49 250 5.0 5.0 0.00 0.00 0.00 52 1022.8
20260503015903 49 242 5.0 7.0 0.00 0.00 0.00 55 1022.9
20260503015401 49 246 3.0 3.0 0.00 0.00 0.00 54 1023.0
20260503014856 50 245 2.0 2.0 0.00 0.00 0.00 54 1022.9
20260503014354 50 249 3.0 3.0 0.00 0.00 0.00 53 1022.5
20260503013852 50 240 2.0 3.0 0.00 0.00 0.00 53 1022.9
20260503013348 51 271 2.0 3.0 0.00 0.00 0.00 53 1022.5
20260503012845 51 236 3.0 3.0 0.00 0.00 0.00 52 1022.7
20260503012343 51 250 4.0 5.0 0.00 0.00 0.00 51 1022.7
20260503011840 52 255 2.0 3.0 0.00 0.00 0.00 51 1022.5
20260503011337 52 267 4.0 5.0 0.00 0.00 0.00 50 1022.5
20260503010833 53 292 1.0 2.0 0.00 0.00 0.00 48 1022.7
20260503010331 53 250 1.0 2.0 0.00 0.00 0.00 44 1022.7
20260503005827 54 237 3.0 3.0 0.00 0.00 0.00 42 1022.5
20260503005325 54 245 3.0 3.0 0.00 0.00 0.00 42 1022.5
20260503004821 55 249 0.0 0.0 0.00 0.00 0.00 42 1022.4
20260503004319 54 240 2.0 3.0 0.00 0.00 0.00 40 1022.4
20260503003816 55 244 2.0 2.0 0.00 0.00 0.00 41 1022.7
20260503003313 55 248 2.0 2.0 0.00 0.00 0.00 40 1022.7
20260503002810 55 285 2.0 2.0 0.00 0.00 0.00 41 1022.8
20260503002307 55 209 3.0 5.0 0.00 0.00 0.00 39 1022.7
20260503001803 55 199 1.0 2.0 0.00 0.00 0.00 40 1022.7
20260503001259 56 269 2.0 3.0 0.00 0.00 0.00 39 1022.5
20260503000757 55 197 2.0 3.0 0.00 0.00 0.00 39 1022.7
20260503000254 55 219 4.0 7.0 0.00 0.00 0.00 39 1022.4
20260502235751 55 113 2.0 3.0 0.00 0.00 0.00 41 1022.5
20260502235249 54 226 4.0 5.0 0.00 0.00 0.00 42 1022.7
20260502234745 54 181 3.0 5.0 0.00 0.00 0.00 42 1022.5
20260502234242 54 176 5.0 7.0 0.00 0.00 0.00 41 1022.5
20260502233738 55 199 2.0 3.0 0.00 0.00 0.00 41 1022.8
20260502233235 55 247 1.0 2.0 0.00 0.00 0.00 43 1022.8
20260502232731 55 231 0.0 0.0 0.00 0.00 0.00 42 1022.8
20260502232228 55 251 0.0 2.0 0.00 0.00 0.00 42 1022.7